Year,Month,Day,Hour,Minute,Value (Times are PST for temperature in C)
2010,05,22,00,00,5.90
2010,05,22,00,01,5.90
2010,05,22,00,02,5.90
2010,05,22,00,03,5.90
2010,05,22,00,04,5.90
2010,05,22,00,05,5.90
2010,05,22,00,06,5.80
2010,05,22,00,07,5.80
2010,05,22,00,08,5.80
2010,05,22,00,09,5.80
2010,05,22,00,10,5.80
2010,05,22,00,11,5.80
2010,05,22,00,12,5.80
2010,05,22,00,13,5.80
2010,05,22,00,14,5.80
2010,05,22,00,15,5.80
2010,05,22,00,16,5.80
2010,05,22,00,17,5.80
2010,05,22,00,18,5.80
2010,05,22,00,19,5.80
2010,05,22,00,20,5.80
2010,05,22,00,21,5.80
2010,05,22,00,22,5.80
2010,05,22,00,23,5.80
2010,05,22,00,24,5.80
2010,05,22,00,25,5.70
2010,05,22,00,26,5.70
2010,05,22,00,27,5.70
2010,05,22,00,28,5.70
2010,05,22,00,29,5.70
2010,05,22,00,30,5.70
2010,05,22,00,31,5.70
2010,05,22,00,32,5.70
2010,05,22,00,33,5.70
2010,05,22,00,34,5.70
2010,05,22,00,35,5.70
2010,05,22,00,36,5.60
2010,05,22,00,37,5.60
2010,05,22,00,38,5.60
2010,05,22,00,39,5.60
2010,05,22,00,40,5.60
2010,05,22,00,41,5.60
2010,05,22,00,42,5.60
2010,05,22,00,43,5.60
2010,05,22,00,44,5.60
2010,05,22,00,45,5.50
2010,05,22,00,46,5.50
2010,05,22,00,47,5.50
2010,05,22,00,48,5.50
2010,05,22,00,49,5.50
2010,05,22,00,50,5.50
2010,05,22,00,51,5.50
2010,05,22,00,52,5.50
2010,05,22,00,53,5.50
2010,05,22,00,54,5.50
2010,05,22,00,55,5.40
2010,05,22,00,56,5.40
2010,05,22,00,57,5.40
2010,05,22,00,58,5.40
2010,05,22,00,59,5.40
2010,05,22,01,00,5.40
2010,05,22,01,01,5.40
2010,05,22,01,02,5.40
2010,05,22,01,03,5.40
2010,05,22,01,04,5.40
2010,05,22,01,05,5.40
2010,05,22,01,06,5.40
2010,05,22,01,07,5.30
2010,05,22,01,08,5.30
2010,05,22,01,09,5.30
2010,05,22,01,10,5.30
2010,05,22,01,11,5.30
2010,05,22,01,12,5.30
2010,05,22,01,13,5.30
2010,05,22,01,14,5.30
2010,05,22,01,15,5.30
2010,05,22,01,16,5.20
2010,05,22,01,17,5.20
2010,05,22,01,18,5.20
2010,05,22,01,19,5.20
2010,05,22,01,20,5.20
2010,05,22,01,21,5.20
2010,05,22,01,22,5.20
2010,05,22,01,23,5.20
2010,05,22,01,24,5.20
2010,05,22,01,25,5.20
2010,05,22,01,26,5.20
2010,05,22,01,27,5.20
2010,05,22,01,28,5.20
2010,05,22,01,29,5.20
2010,05,22,01,30,5.20
2010,05,22,01,31,5.20
2010,05,22,01,32,5.20
2010,05,22,01,33,5.20
2010,05,22,01,34,5.20
2010,05,22,01,35,5.20
2010,05,22,01,36,5.20
2010,05,22,01,37,5.20
2010,05,22,01,38,5.20
2010,05,22,01,39,5.10
2010,05,22,01,40,5.10
2010,05,22,01,41,5.10
2010,05,22,01,42,5.10
2010,05,22,01,43,5.10
2010,05,22,01,44,5.10
2010,05,22,01,45,5.00
2010,05,22,01,46,5.00
2010,05,22,01,47,5.00
2010,05,22,01,48,5.00
2010,05,22,01,49,5.00
2010,05,22,01,50,5.00
2010,05,22,01,51,5.00
2010,05,22,01,52,4.90
2010,05,22,01,53,5.00
2010,05,22,01,54,5.00
2010,05,22,01,55,5.00
2010,05,22,01,56,5.00
2010,05,22,01,57,5.00
2010,05,22,01,58,5.00
2010,05,22,01,59,5.00
2010,05,22,02,00,5.00
2010,05,22,02,01,5.00
2010,05,22,02,02,5.00
2010,05,22,02,03,5.00
2010,05,22,02,04,5.00
2010,05,22,02,05,4.90
2010,05,22,02,06,4.90
2010,05,22,02,07,4.90
2010,05,22,02,08,4.90
2010,05,22,02,09,4.90
2010,05,22,02,10,4.90
2010,05,22,02,11,4.90
2010,05,22,02,12,4.90
2010,05,22,02,13,4.90
2010,05,22,02,14,4.90
2010,05,22,02,15,4.80
2010,05,22,02,16,4.80
2010,05,22,02,17,4.80
2010,05,22,02,18,4.80
2010,05,22,02,19,4.80
2010,05,22,02,20,4.80
2010,05,22,02,21,4.80
2010,05,22,02,22,4.80
2010,05,22,02,23,4.80
2010,05,22,02,24,4.80
2010,05,22,02,25,4.70
2010,05,22,02,26,4.70
2010,05,22,02,27,4.70
2010,05,22,02,28,4.70
2010,05,22,02,29,4.70
2010,05,22,02,30,4.70
2010,05,22,02,31,4.70
2010,05,22,02,32,4.60
2010,05,22,02,33,4.60
2010,05,22,02,34,4.60
2010,05,22,02,35,4.60
2010,05,22,02,36,4.60
2010,05,22,02,37,4.60
2010,05,22,02,38,4.60
2010,05,22,02,39,4.60
2010,05,22,02,40,4.60
2010,05,22,02,41,4.60
2010,05,22,02,42,4.60
2010,05,22,02,43,4.60
2010,05,22,02,44,4.60
2010,05,22,02,45,4.60
2010,05,22,02,46,4.60
2010,05,22,02,47,4.60
2010,05,22,02,48,4.60
2010,05,22,02,49,4.60
2010,05,22,02,50,4.60
2010,05,22,02,51,4.60
2010,05,22,02,52,4.60
2010,05,22,02,53,4.60
2010,05,22,02,54,4.60
2010,05,22,02,55,4.60
2010,05,22,02,56,4.60
2010,05,22,02,57,4.60
2010,05,22,02,58,4.60
2010,05,22,02,59,4.60
2010,05,22,03,00,4.50
2010,05,22,03,01,4.50
2010,05,22,03,02,4.50
2010,05,22,03,03,4.50
2010,05,22,03,04,4.50
2010,05,22,03,05,4.50
2010,05,22,03,06,4.50
2010,05,22,03,07,4.50
2010,05,22,03,08,4.50
2010,05,22,03,09,4.50
2010,05,22,03,10,4.50
2010,05,22,03,11,4.50
2010,05,22,03,12,4.50
2010,05,22,03,13,4.50
2010,05,22,03,14,4.50
2010,05,22,03,15,4.50
2010,05,22,03,16,4.50
2010,05,22,03,17,4.50
2010,05,22,03,18,4.50
2010,05,22,03,19,4.50
2010,05,22,03,20,4.50
2010,05,22,03,21,4.50
2010,05,22,03,22,4.50
2010,05,22,03,23,4.50
2010,05,22,03,24,4.50
2010,05,22,03,25,4.50
2010,05,22,03,26,4.50
2010,05,22,03,27,4.50
2010,05,22,03,28,4.50
2010,05,22,03,29,4.40
2010,05,22,03,30,4.40
2010,05,22,03,31,4.40
2010,05,22,03,32,4.40
2010,05,22,03,33,4.40
2010,05,22,03,34,4.40
2010,05,22,03,35,4.40
2010,05,22,03,36,4.40
2010,05,22,03,37,4.40
2010,05,22,03,38,4.40
2010,05,22,03,39,4.50
2010,05,22,03,40,4.50
2010,05,22,03,41,4.60
2010,05,22,03,42,4.60
2010,05,22,03,43,4.60
2010,05,22,03,44,4.60
2010,05,22,03,45,4.60
2010,05,22,03,46,4.60
2010,05,22,03,47,4.50
2010,05,22,03,48,4.50
2010,05,22,03,49,4.50
2010,05,22,03,50,4.50
2010,05,22,03,51,4.50
2010,05,22,03,52,4.50
2010,05,22,03,53,4.50
2010,05,22,03,54,4.50
2010,05,22,03,55,4.60
2010,05,22,03,56,4.50
2010,05,22,03,57,4.50
2010,05,22,03,58,4.50
2010,05,22,03,59,4.50
2010,05,22,04,00,4.50
2010,05,22,04,01,4.50
2010,05,22,04,02,4.50
2010,05,22,04,03,4.40
2010,05,22,04,04,4.40
2010,05,22,04,05,4.40
2010,05,22,04,06,4.30
2010,05,22,04,07,4.30
2010,05,22,04,08,4.30
2010,05,22,04,09,4.30
2010,05,22,04,10,4.30
2010,05,22,04,11,4.30
2010,05,22,04,12,4.30
2010,05,22,04,13,4.30
2010,05,22,04,14,4.30
2010,05,22,04,15,4.30
2010,05,22,04,16,4.30
2010,05,22,04,17,4.30
2010,05,22,04,18,4.30
2010,05,22,04,19,4.30
2010,05,22,04,20,4.30
2010,05,22,04,21,4.30
2010,05,22,04,22,4.30
2010,05,22,04,23,4.30
2010,05,22,04,24,4.30
2010,05,22,04,25,4.30
2010,05,22,04,26,4.30
2010,05,22,04,27,4.20
2010,05,22,04,28,4.30
2010,05,22,04,29,4.20
2010,05,22,04,30,4.20
2010,05,22,04,31,4.20
2010,05,22,04,32,4.20
2010,05,22,04,33,4.20
2010,05,22,04,34,4.20
2010,05,22,04,35,4.20
2010,05,22,04,36,4.30
2010,05,22,04,37,4.30
2010,05,22,04,38,4.30
2010,05,22,04,39,4.30
2010,05,22,04,40,4.40
2010,05,22,04,41,4.40
2010,05,22,04,42,4.40
2010,05,22,04,43,4.50
2010,05,22,04,44,4.50
2010,05,22,04,45,4.50
2010,05,22,04,46,4.50
2010,05,22,04,47,4.50
2010,05,22,04,48,4.50
2010,05,22,04,49,4.50
2010,05,22,04,50,4.50
2010,05,22,04,51,4.40
2010,05,22,04,52,4.40
2010,05,22,04,53,4.40
2010,05,22,04,54,4.40
2010,05,22,04,55,4.40
2010,05,22,04,56,4.30
2010,05,22,04,57,4.30
2010,05,22,04,58,4.30
2010,05,22,04,59,4.30
2010,05,22,05,00,4.30
2010,05,22,05,01,4.20
2010,05,22,05,02,4.20
2010,05,22,05,03,4.20
2010,05,22,05,04,4.20
2010,05,22,05,05,4.20
2010,05,22,05,06,4.10
2010,05,22,05,07,4.10
2010,05,22,05,08,4.10
2010,05,22,05,09,4.10
2010,05,22,05,10,4.10
2010,05,22,05,11,4.10
2010,05,22,05,12,4.10
2010,05,22,05,13,4.10
2010,05,22,05,14,4.10
2010,05,22,05,15,4.20
2010,05,22,05,16,4.20
2010,05,22,05,17,4.20
2010,05,22,05,18,4.20
2010,05,22,05,19,4.20
2010,05,22,05,20,4.20
2010,05,22,05,21,4.20
2010,05,22,05,22,4.20
2010,05,22,05,23,4.10
2010,05,22,05,24,4.10
2010,05,22,05,25,4.10
2010,05,22,05,26,4.10
2010,05,22,05,27,4.10
2010,05,22,05,28,4.10
2010,05,22,05,29,4.10
2010,05,22,05,30,4.00
2010,05,22,05,31,4.00
2010,05,22,05,32,4.00
2010,05,22,05,33,4.00
2010,05,22,05,34,3.90
2010,05,22,05,35,3.90
2010,05,22,05,36,3.90
2010,05,22,05,37,3.90
2010,05,22,05,38,3.90
2010,05,22,05,39,3.90
2010,05,22,05,40,3.80
2010,05,22,05,41,3.80
2010,05,22,05,42,3.80
2010,05,22,05,43,3.80
2010,05,22,05,44,3.80
2010,05,22,05,45,3.80
2010,05,22,05,46,3.90
2010,05,22,05,47,3.90
2010,05,22,05,48,3.90
2010,05,22,05,49,3.90
2010,05,22,05,50,3.90
2010,05,22,05,51,3.90
2010,05,22,05,52,4.00
2010,05,22,05,53,4.00
2010,05,22,05,54,4.00
2010,05,22,05,55,4.00
2010,05,22,05,56,4.00
2010,05,22,05,57,4.00
2010,05,22,05,58,4.00
2010,05,22,05,59,4.00
2010,05,22,06,00,4.00
2010,05,22,06,01,4.00
2010,05,22,06,02,4.00
2010,05,22,06,03,3.90
2010,05,22,06,04,3.90
2010,05,22,06,05,4.00
2010,05,22,06,06,4.00
2010,05,22,06,07,4.00
2010,05,22,06,08,3.90
2010,05,22,06,09,3.90
2010,05,22,06,10,3.90
2010,05,22,06,11,3.90
2010,05,22,06,12,3.90
2010,05,22,06,13,3.80
2010,05,22,06,14,3.80
2010,05,22,06,15,3.80
2010,05,22,06,16,3.80
2010,05,22,06,17,3.80
2010,05,22,06,18,3.80
2010,05,22,06,19,3.80
2010,05,22,06,20,3.80
2010,05,22,06,21,3.80
2010,05,22,06,22,3.80
2010,05,22,06,23,3.90
2010,05,22,06,24,3.90
2010,05,22,06,25,3.90
2010,05,22,06,26,3.90
2010,05,22,06,27,3.90
2010,05,22,06,28,3.90
2010,05,22,06,29,3.90
2010,05,22,06,30,3.90
2010,05,22,06,31,3.90
2010,05,22,06,32,3.90
2010,05,22,06,33,3.90
2010,05,22,06,34,3.90
2010,05,22,06,35,3.90
2010,05,22,06,36,4.00
2010,05,22,06,37,4.00
2010,05,22,06,38,4.10
2010,05,22,06,39,4.10
2010,05,22,06,40,4.10
2010,05,22,06,41,4.20
2010,05,22,06,42,4.20
2010,05,22,06,43,4.20
2010,05,22,06,44,4.20
2010,05,22,06,45,4.30
2010,05,22,06,46,4.30
2010,05,22,06,47,4.30
2010,05,22,06,48,4.30
2010,05,22,06,49,4.40
2010,05,22,06,50,4.40
2010,05,22,06,51,4.40
2010,05,22,06,52,4.50
2010,05,22,06,53,4.50
2010,05,22,06,54,4.60
2010,05,22,06,55,4.60
2010,05,22,06,56,4.70
2010,05,22,06,57,4.70
2010,05,22,06,58,4.70
2010,05,22,06,59,4.80
2010,05,22,07,00,4.80
2010,05,22,07,01,4.80
2010,05,22,07,02,4.90
2010,05,22,07,03,4.90
2010,05,22,07,04,4.90
2010,05,22,07,05,5.00
2010,05,22,07,06,5.00
2010,05,22,07,07,5.10
2010,05,22,07,08,5.10
2010,05,22,07,09,5.10
2010,05,22,07,10,5.20
2010,05,22,07,11,5.20
2010,05,22,07,12,5.20
2010,05,22,07,13,5.30
2010,05,22,07,14,5.30
2010,05,22,07,15,5.30
2010,05,22,07,16,5.40
2010,05,22,07,17,5.40
2010,05,22,07,18,5.50
2010,05,22,07,19,5.50
2010,05,22,07,20,5.60
2010,05,22,07,21,5.60
2010,05,22,07,22,5.60
2010,05,22,07,23,5.70
2010,05,22,07,24,5.70
2010,05,22,07,25,5.70
2010,05,22,07,26,5.70
2010,05,22,07,27,5.70
2010,05,22,07,28,5.80
2010,05,22,07,29,5.80
2010,05,22,07,30,5.80
2010,05,22,07,31,5.80
2010,05,22,07,32,5.80
2010,05,22,07,33,5.90
2010,05,22,07,34,5.90
2010,05,22,07,35,5.90
2010,05,22,07,36,5.90
2010,05,22,07,37,5.90
2010,05,22,07,38,5.90
2010,05,22,07,39,6.00
2010,05,22,07,40,6.00
2010,05,22,07,41,6.00
2010,05,22,07,42,6.10
2010,05,22,07,43,6.10
2010,05,22,07,44,6.20
2010,05,22,07,45,6.20
2010,05,22,07,46,6.20
2010,05,22,07,47,6.30
2010,05,22,07,48,6.30
2010,05,22,07,49,6.30
2010,05,22,07,50,6.30
2010,05,22,07,51,6.40
2010,05,22,07,52,6.40
2010,05,22,07,53,6.40
2010,05,22,07,54,6.50
2010,05,22,07,55,6.50
2010,05,22,07,56,6.50
2010,05,22,07,57,6.50
2010,05,22,07,58,6.60
2010,05,22,07,59,6.60
2010,05,22,08,00,6.60
2010,05,22,08,01,6.60
2010,05,22,08,02,6.70
2010,05,22,08,03,6.70
2010,05,22,08,04,6.70
2010,05,22,08,05,6.70
2010,05,22,08,06,6.70
2010,05,22,08,07,6.70
2010,05,22,08,08,6.80
2010,05,22,08,09,6.80
2010,05,22,08,10,6.80
2010,05,22,08,11,6.80
2010,05,22,08,12,6.80
2010,05,22,08,13,6.90
2010,05,22,08,14,6.90
2010,05,22,08,15,6.90
2010,05,22,08,16,6.90
2010,05,22,08,17,6.90
2010,05,22,08,18,7.00
2010,05,22,08,19,7.00
2010,05,22,08,20,7.00
2010,05,22,08,21,7.00
2010,05,22,08,22,7.00
2010,05,22,08,23,7.00
2010,05,22,08,24,7.00
2010,05,22,08,25,7.10
2010,05,22,08,26,7.10
2010,05,22,08,27,7.10
2010,05,22,08,28,7.10
2010,05,22,08,29,7.10
2010,05,22,08,30,7.10
2010,05,22,08,31,7.10
2010,05,22,08,32,7.10
2010,05,22,08,33,7.10
2010,05,22,08,34,7.20
2010,05,22,08,35,7.20
2010,05,22,08,36,7.20
2010,05,22,08,37,7.20
2010,05,22,08,38,7.30
2010,05,22,08,39,7.40
2010,05,22,08,40,7.50
2010,05,22,08,41,7.60
2010,05,22,08,42,7.70
2010,05,22,08,43,7.70
2010,05,22,08,44,7.80
2010,05,22,08,45,7.90
2010,05,22,08,46,7.90
2010,05,22,08,47,8.00
2010,05,22,08,48,8.00
2010,05,22,08,49,8.10
2010,05,22,08,50,8.10
2010,05,22,08,51,8.10
2010,05,22,08,52,8.20
2010,05,22,08,53,8.20
2010,05,22,08,54,8.30
2010,05,22,08,55,8.30
2010,05,22,08,56,8.30
2010,05,22,08,57,8.30
2010,05,22,08,58,8.40
2010,05,22,08,59,8.40
2010,05,22,09,00,8.50
2010,05,22,09,01,8.50
2010,05,22,09,02,8.60
2010,05,22,09,03,8.60
2010,05,22,09,04,8.60
2010,05,22,09,05,8.60
2010,05,22,09,06,8.60
2010,05,22,09,07,8.60
2010,05,22,09,08,8.60
2010,05,22,09,09,8.70
2010,05,22,09,10,8.70
2010,05,22,09,11,8.70
2010,05,22,09,12,8.70
2010,05,22,09,13,8.80
2010,05,22,09,14,8.80
2010,05,22,09,15,8.80
2010,05,22,09,16,8.90
2010,05,22,09,17,8.90
2010,05,22,09,18,9.00
2010,05,22,09,19,9.00
2010,05,22,09,20,9.10
2010,05,22,09,21,9.10
2010,05,22,09,22,9.10
2010,05,22,09,23,9.20
2010,05,22,09,24,9.20
2010,05,22,09,25,9.30
2010,05,22,09,26,9.40
2010,05,22,09,27,9.40
2010,05,22,09,28,9.50
2010,05,22,09,29,9.50
2010,05,22,09,30,9.50
2010,05,22,09,31,9.60
2010,05,22,09,32,9.60
2010,05,22,09,33,9.60
2010,05,22,09,34,9.60
2010,05,22,09,35,9.70
2010,05,22,09,36,9.70
2010,05,22,09,37,9.70
2010,05,22,09,38,9.70
2010,05,22,09,39,9.60
2010,05,22,09,40,9.60
2010,05,22,09,41,9.60
2010,05,22,09,42,9.60
2010,05,22,09,43,9.70
2010,05,22,09,44,9.60
2010,05,22,09,45,9.70
2010,05,22,09,46,9.70
2010,05,22,09,47,9.70
2010,05,22,09,48,9.70
2010,05,22,09,49,9.80
2010,05,22,09,50,9.80
2010,05,22,09,51,9.80
2010,05,22,09,52,9.90
2010,05,22,09,53,9.90
2010,05,22,09,54,9.90
2010,05,22,09,55,9.90
2010,05,22,09,56,9.90
2010,05,22,09,57,9.90
2010,05,22,09,58,10.00
2010,05,22,09,59,10.00
2010,05,22,10,00,10.00
2010,05,22,10,01,10.10
2010,05,22,10,02,10.10
2010,05,22,10,03,10.10
2010,05,22,10,04,10.10
2010,05,22,10,05,10.10
2010,05,22,10,06,10.10
2010,05,22,10,07,10.10
2010,05,22,10,08,10.00
2010,05,22,10,09,10.00
2010,05,22,10,10,10.00
2010,05,22,10,11,10.00
2010,05,22,10,12,10.10
2010,05,22,10,13,10.00
2010,05,22,10,14,10.00
2010,05,22,10,15,10.10
2010,05,22,10,16,10.00
2010,05,22,10,17,10.10
2010,05,22,10,18,10.10
2010,05,22,10,19,10.10
2010,05,22,10,20,10.10
2010,05,22,10,21,10.10
2010,05,22,10,22,10.20
2010,05,22,10,23,10.20
2010,05,22,10,24,10.20
2010,05,22,10,25,10.20
2010,05,22,10,26,10.20
2010,05,22,10,27,10.30
2010,05,22,10,28,10.30
2010,05,22,10,29,10.30
2010,05,22,10,30,10.40
2010,05,22,10,31,10.40
2010,05,22,10,32,10.40
2010,05,22,10,33,10.40
2010,05,22,10,34,10.40
2010,05,22,10,35,10.40
2010,05,22,10,36,10.40
2010,05,22,10,37,10.40
2010,05,22,10,38,10.40
2010,05,22,10,39,10.40
2010,05,22,10,40,10.40
2010,05,22,10,41,10.50
2010,05,22,10,42,10.50
2010,05,22,10,43,10.50
2010,05,22,10,44,10.60
2010,05,22,10,45,10.60
2010,05,22,10,46,10.70
2010,05,22,10,47,10.70
2010,05,22,10,48,10.70
2010,05,22,10,49,10.70
2010,05,22,10,50,10.70
2010,05,22,10,51,10.70
2010,05,22,10,52,10.70
2010,05,22,10,53,10.70
2010,05,22,10,54,10.70
2010,05,22,10,55,10.70
2010,05,22,10,56,10.70
2010,05,22,10,57,10.80
2010,05,22,10,58,10.80
2010,05,22,10,59,10.80
2010,05,22,11,00,10.90
2010,05,22,11,01,10.90
2010,05,22,11,02,10.90
2010,05,22,11,03,11.00
2010,05,22,11,04,11.00
2010,05,22,11,05,11.10
2010,05,22,11,06,11.00
2010,05,22,11,07,11.00
2010,05,22,11,08,11.00
2010,05,22,11,09,11.00
2010,05,22,11,10,11.10
2010,05,22,11,11,11.10
2010,05,22,11,12,11.10
2010,05,22,11,13,11.10
2010,05,22,11,14,11.20
2010,05,22,11,15,11.20
2010,05,22,11,16,11.20
2010,05,22,11,17,11.30
2010,05,22,11,18,11.30
2010,05,22,11,19,11.30
2010,05,22,11,20,11.30
2010,05,22,11,21,11.40
2010,05,22,11,22,11.40
2010,05,22,11,23,11.40
2010,05,22,11,24,11.40
2010,05,22,11,25,11.40
2010,05,22,11,26,11.40
2010,05,22,11,27,11.40
2010,05,22,11,28,11.40
2010,05,22,11,29,11.40
2010,05,22,11,30,11.40
2010,05,22,11,31,11.40
2010,05,22,11,32,11.40
2010,05,22,11,33,11.40
2010,05,22,11,34,11.40
2010,05,22,11,35,11.40
2010,05,22,11,36,11.40
2010,05,22,11,37,11.40
2010,05,22,11,38,11.30
2010,05,22,11,39,11.30
2010,05,22,11,40,11.30
2010,05,22,11,41,11.30
2010,05,22,11,42,11.30
2010,05,22,11,43,11.30
2010,05,22,11,44,11.30
2010,05,22,11,45,11.30
2010,05,22,11,46,11.20
2010,05,22,11,47,11.20
2010,05,22,11,48,11.20
2010,05,22,11,49,11.20
2010,05,22,11,50,11.20
2010,05,22,11,51,11.20
2010,05,22,11,52,11.20
2010,05,22,11,53,11.20
2010,05,22,11,54,11.20
2010,05,22,11,55,11.20
2010,05,22,11,56,11.20
2010,05,22,11,57,11.20
2010,05,22,11,58,11.20
2010,05,22,11,59,11.20
2010,05,22,12,00,11.20
2010,05,22,12,01,11.20
2010,05,22,12,02,11.20
2010,05,22,12,03,11.20
2010,05,22,12,04,11.30
2010,05,22,12,05,11.30
2010,05,22,12,06,11.30
2010,05,22,12,07,11.40
2010,05,22,12,08,11.40
2010,05,22,12,09,11.50
2010,05,22,12,10,11.50
2010,05,22,12,11,11.60
2010,05,22,12,12,11.60
2010,05,22,12,13,11.60
2010,05,22,12,14,11.60
2010,05,22,12,15,11.50
2010,05,22,12,16,11.50
2010,05,22,12,17,11.50
2010,05,22,12,18,11.50
2010,05,22,12,19,11.50
2010,05,22,12,20,11.60
2010,05,22,12,21,11.60
2010,05,22,12,22,11.60
2010,05,22,12,23,11.60
2010,05,22,12,24,11.60
2010,05,22,12,25,11.60
2010,05,22,12,26,11.60
2010,05,22,12,27,11.70
2010,05,22,12,28,11.60
2010,05,22,12,29,11.60
2010,05,22,12,30,11.60
2010,05,22,12,31,11.60
2010,05,22,12,32,11.60
2010,05,22,12,33,11.60
2010,05,22,12,34,11.60
2010,05,22,12,35,11.60
2010,05,22,12,36,11.60
2010,05,22,12,37,11.60
2010,05,22,12,38,11.50
2010,05,22,12,39,11.40
2010,05,22,12,40,11.30
2010,05,22,12,41,11.20
2010,05,22,12,42,11.10
2010,05,22,12,43,11.10
2010,05,22,12,44,11.10
2010,05,22,12,45,11.10
2010,05,22,12,46,11.10
2010,05,22,12,47,11.00
2010,05,22,12,48,11.00
2010,05,22,12,49,10.90
2010,05,22,12,50,10.90
2010,05,22,12,51,10.90
2010,05,22,12,52,10.90
2010,05,22,12,53,11.00
2010,05,22,12,54,11.00
2010,05,22,12,55,10.90
2010,05,22,12,56,11.00
2010,05,22,12,57,11.00
2010,05,22,12,58,11.00
2010,05,22,12,59,11.00
2010,05,22,13,00,10.90
2010,05,22,13,01,11.00
2010,05,22,13,02,11.10
2010,05,22,13,03,11.20
2010,05,22,13,04,11.30
2010,05,22,13,05,11.40
2010,05,22,13,06,11.50
2010,05,22,13,07,11.50
2010,05,22,13,08,11.60
2010,05,22,13,09,11.50
2010,05,22,13,10,11.50
2010,05,22,13,11,11.50
2010,05,22,13,12,11.60
2010,05,22,13,13,11.60
2010,05,22,13,14,11.60
2010,05,22,13,15,11.60
2010,05,22,13,16,11.50
2010,05,22,13,17,11.50
2010,05,22,13,18,11.50
2010,05,22,13,19,11.50
2010,05,22,13,20,11.50
2010,05,22,13,21,11.50
2010,05,22,13,22,11.60
2010,05,22,13,23,11.60
2010,05,22,13,24,11.60
2010,05,22,13,25,11.60
2010,05,22,13,26,11.60
2010,05,22,13,27,11.60
2010,05,22,13,28,11.70
2010,05,22,13,29,11.70
2010,05,22,13,30,11.70
2010,05,22,13,31,11.70
2010,05,22,13,32,11.70
2010,05,22,13,33,11.80
2010,05,22,13,34,11.80
2010,05,22,13,35,11.70
2010,05,22,13,36,11.60
2010,05,22,13,37,11.60
2010,05,22,13,38,11.50
2010,05,22,13,39,11.40
2010,05,22,13,40,11.50
2010,05,22,13,41,11.50
2010,05,22,13,42,11.60
2010,05,22,13,43,11.70
2010,05,22,13,44,11.80
2010,05,22,13,45,11.80
2010,05,22,13,46,11.90
2010,05,22,13,47,11.90
2010,05,22,13,48,11.90
2010,05,22,13,49,11.80
2010,05,22,13,50,11.80
2010,05,22,13,51,11.80
2010,05,22,13,52,11.80
2010,05,22,13,53,11.90
2010,05,22,13,54,11.90
2010,05,22,13,55,12.00
2010,05,22,13,56,12.00
2010,05,22,13,57,11.80
2010,05,22,13,58,11.80
2010,05,22,13,59,11.70
2010,05,22,14,00,11.70
2010,05,22,14,01,11.80
2010,05,22,14,02,11.90
2010,05,22,14,03,11.90
2010,05,22,14,04,11.90
2010,05,22,14,05,12.00
2010,05,22,14,06,11.90
2010,05,22,14,07,11.90
2010,05,22,14,08,11.90
2010,05,22,14,09,12.00
2010,05,22,14,10,12.00
2010,05,22,14,11,12.00
2010,05,22,14,12,12.10
2010,05,22,14,13,12.00
2010,05,22,14,14,11.90
2010,05,22,14,15,11.90
2010,05,22,14,16,12.00
2010,05,22,14,17,12.10
2010,05,22,14,18,12.10
2010,05,22,14,19,12.20
2010,05,22,14,20,12.30
2010,05,22,14,21,12.40
2010,05,22,14,22,12.40
2010,05,22,14,23,12.50
2010,05,22,14,24,12.60
2010,05,22,14,25,12.60
2010,05,22,14,26,12.50
2010,05,22,14,27,12.50
2010,05,22,14,28,12.50
2010,05,22,14,29,12.40
2010,05,22,14,30,12.40
2010,05,22,14,31,12.40
2010,05,22,14,32,12.30
2010,05,22,14,33,12.30
2010,05,22,14,34,12.30
2010,05,22,14,35,12.30
2010,05,22,14,36,12.30
2010,05,22,14,37,12.30
2010,05,22,14,38,12.30
2010,05,22,14,39,12.30
2010,05,22,14,40,12.30
2010,05,22,14,41,12.20
2010,05,22,14,42,12.20
2010,05,22,14,43,12.30
2010,05,22,14,44,12.30
2010,05,22,14,45,12.30
2010,05,22,14,46,12.30
2010,05,22,14,47,12.30
2010,05,22,14,48,12.30
2010,05,22,14,49,12.40
2010,05,22,14,50,12.50
2010,05,22,14,51,12.60
2010,05,22,14,52,12.60
2010,05,22,14,53,12.60
2010,05,22,14,54,12.50
2010,05,22,14,55,12.50
2010,05,22,14,56,12.40
2010,05,22,14,57,12.30
2010,05,22,14,58,12.30
2010,05,22,14,59,12.30
2010,05,22,15,00,12.30
2010,05,22,15,01,12.30
2010,05,22,15,02,12.30
2010,05,22,15,03,12.20
2010,05,22,15,04,12.20
2010,05,22,15,05,12.20
2010,05,22,15,06,12.20
2010,05,22,15,07,12.30
2010,05,22,15,08,12.30
2010,05,22,15,09,12.30
2010,05,22,15,10,12.30
2010,05,22,15,11,12.30
2010,05,22,15,12,12.20
2010,05,22,15,13,12.30
2010,05,22,15,14,12.30
2010,05,22,15,15,12.30
2010,05,22,15,16,12.30
2010,05,22,15,17,12.30
2010,05,22,15,18,12.30
2010,05,22,15,19,12.30
2010,05,22,15,20,12.40
2010,05,22,15,21,12.30
2010,05,22,15,22,12.30
2010,05,22,15,23,12.30
2010,05,22,15,24,12.30
2010,05,22,15,25,12.40
2010,05,22,15,26,12.40
2010,05,22,15,27,12.40
2010,05,22,15,28,12.30
2010,05,22,15,29,12.30
2010,05,22,15,30,12.20
2010,05,22,15,31,12.30
2010,05,22,15,32,12.30
2010,05,22,15,33,12.30
2010,05,22,15,34,12.20
2010,05,22,15,35,12.20
2010,05,22,15,36,12.20
2010,05,22,15,37,12.20
2010,05,22,15,38,12.20
2010,05,22,15,39,12.30
2010,05,22,15,40,12.30
2010,05,22,15,41,12.20
2010,05,22,15,42,12.10
2010,05,22,15,43,12.00
2010,05,22,15,44,12.00
2010,05,22,15,45,11.90
2010,05,22,15,46,11.90
2010,05,22,15,47,11.90
2010,05,22,15,48,11.90
2010,05,22,15,49,11.90
2010,05,22,15,50,11.90
2010,05,22,15,51,12.00
2010,05,22,15,52,12.10
2010,05,22,15,53,12.10
2010,05,22,15,54,12.20
2010,05,22,15,55,12.20
2010,05,22,15,56,12.20
2010,05,22,15,57,12.20
2010,05,22,15,58,12.20
2010,05,22,15,59,12.20
2010,05,22,16,00,12.20
2010,05,22,16,01,12.20
2010,05,22,16,02,12.10
2010,05,22,16,03,12.10
2010,05,22,16,04,12.10
2010,05,22,16,05,12.10
2010,05,22,16,06,12.10
2010,05,22,16,07,12.10
2010,05,22,16,08,12.10
2010,05,22,16,09,12.10
2010,05,22,16,10,12.10
2010,05,22,16,11,12.10
2010,05,22,16,12,12.10
2010,05,22,16,13,12.10
2010,05,22,16,14,12.10
2010,05,22,16,15,12.00
2010,05,22,16,16,12.00
2010,05,22,16,17,12.00
2010,05,22,16,18,12.00
2010,05,22,16,19,11.90
2010,05,22,16,20,11.90
2010,05,22,16,21,11.90
2010,05,22,16,22,11.80
2010,05,22,16,23,11.80
2010,05,22,16,24,11.80
2010,05,22,16,25,11.80
2010,05,22,16,26,11.80
2010,05,22,16,27,11.80
2010,05,22,16,28,11.80
2010,05,22,16,29,11.80
2010,05,22,16,30,11.80
2010,05,22,16,31,11.90
2010,05,22,16,32,11.90
2010,05,22,16,33,11.80
2010,05,22,16,34,11.80
2010,05,22,16,35,11.90
2010,05,22,16,36,11.90
2010,05,22,16,37,11.90
2010,05,22,16,38,11.90
2010,05,22,16,39,11.90
2010,05,22,16,40,12.00
2010,05,22,16,41,12.00
2010,05,22,16,42,12.00
2010,05,22,16,43,12.00
2010,05,22,16,44,11.90
2010,05,22,16,45,11.90
2010,05,22,16,46,11.90
2010,05,22,16,47,11.90
2010,05,22,16,48,11.90
2010,05,22,16,49,11.90
2010,05,22,16,50,11.90
2010,05,22,16,51,11.90
2010,05,22,16,52,11.90
2010,05,22,16,53,11.90
2010,05,22,16,54,11.90
2010,05,22,16,55,11.90
2010,05,22,16,56,11.80
2010,05,22,16,57,11.80
2010,05,22,16,58,11.90
2010,05,22,16,59,11.90
2010,05,22,17,00,12.00
2010,05,22,17,01,12.10
2010,05,22,17,02,12.10
2010,05,22,17,03,12.10
2010,05,22,17,04,12.10
2010,05,22,17,05,12.10
2010,05,22,17,06,12.10
2010,05,22,17,07,12.00
2010,05,22,17,08,12.00
2010,05,22,17,09,11.90
2010,05,22,17,10,11.90
2010,05,22,17,11,11.90
2010,05,22,17,12,11.90
2010,05,22,17,13,11.80
2010,05,22,17,14,11.80
2010,05,22,17,15,11.80
2010,05,22,17,16,11.80
2010,05,22,17,17,11.80
2010,05,22,17,18,11.80
2010,05,22,17,19,11.70
2010,05,22,17,20,11.70
2010,05,22,17,21,11.70
2010,05,22,17,22,11.60
2010,05,22,17,23,11.60
2010,05,22,17,24,11.50
2010,05,22,17,25,11.50
2010,05,22,17,26,11.40
2010,05,22,17,27,11.50
2010,05,22,17,28,11.50
2010,05,22,17,29,11.40
2010,05,22,17,30,11.40
2010,05,22,17,31,11.40
2010,05,22,17,32,11.40
2010,05,22,17,33,11.40
2010,05,22,17,34,11.40
2010,05,22,17,35,11.40
2010,05,22,17,36,11.30
2010,05,22,17,37,11.30
2010,05,22,17,38,11.30
2010,05,22,17,39,11.20
2010,05,22,17,40,11.20
2010,05,22,17,41,11.20
2010,05,22,17,42,11.20
2010,05,22,17,43,11.20
2010,05,22,17,44,11.20
2010,05,22,17,45,11.20